Dewpoint
53 54 54 54 54 54 54 54 55 55 55 55 55 55 56 55 56 56 56 56 56 56 56 56 55 55 55 55 55 55 56 53 51 49 49 44 48 53 63 64 63 64 64 68 69 67 65 62 63 66 63 65 62 63 65 66 65 68 61 59 57 57 55 56 55 51 52 57 60 62 60 60 60 61 62 62 62 63 62 62 63 64 64 65 66 67 67 67
55 54 54 54 54 54 54 55 54 55 55 55 55 56 56 56 56 56 56 56 56 56 56 55 55 55 55 55 55 55 54 52 50 49 47 48 57 58 61 63 66 66 66 67 67 65 63 60 60 63 62 62 61 60 64 63 65 64 61 59 55 57 58 59 56 54 53 53 60 60 60 59 59 60 62 59 60 61 60 62 63 64 65 66 66 66 66 66
55 54 55 55 54 54 55 55 55 55 55 55 55 55 54 55 56 56 56 56 56 56 56 56 55 55 55 55 56 56 52 48 50 48 45 60 60 62 63 62 69 69 58 67 65 63 61 59 59 60 61 59 58 59 63 61 63 63 61 58 59 59 58 58 57 56 55 56 59 59 59 58 60 60 62 59 60 60 59 61 62 63 64 65 66 66 65 65
54 55 55 55 55 55 55 55 55 55 55 55 55 55 56 55 56 56 55 56 56 56 56 55 55 55 55 55 56 55 53 50 43 40 42 60 65 62 61 64 65 68 56 62 62 59 58 57 57 58 56 52 54 58 60 61 62 62 62 59 58 59 58 58 58 57 56 58 58 58 59 58 60 60 60 59 59 59 59 62 62 63 65 65 66 65 65 65
54 54 55 55 55 55 55 55 55 55 55 55 55 55 55 56 56 56 55 55 55 56 56 55 55 55 55 56 56 53 47 30 28 41 43 72 69 65 62 65 64 61 56 56 52 53 55 54 53 52 50 48 50 55 58 60 62 60 61 60 59 58 57 58 58 58 56 55 57 58 58 57 60 60 59 59 57 58 59 61 62 64 65 65 65 65 65 64
54 54 55 55 55 55 55 55 55 55 55 56 55 56 56 56 56 56 56 55 56 55 55 55 55 55 55 56 53 52 38 22 31 35 70 68 70 67 63 66 65 55 51 53 50 52 52 52 49 48 46 46 48 53 54 59 61 58 59 60 61 60 57 58 55 61 57 56 57 56 56 58 58 58 59 59 58 59 60 61 63 65 66 66 66 65 64 64
54 54 55 55 55 55 55 55 55 55 55 56 56 56 56 55 55 55 55 55 55 55 55 55 55 54 55 56 52 51 37 33 37 36 53 68 72 69 64 64 65 47 53 51 49 49 49 51 47 47 45 45 45 51 53 56 59 60 58 58 58 59 59 59 58 57 56 55 55 56 56 57 57 56 58 58 59 59 60 63 64 65 66 66 65 65 64 64
54 54 54 55 55 55 55 55 55 55 55 55 56 56 55 55 55 55 55 55 55 55 55 55 55 55 57 53 49 44 36 29 30 33 52 74 72 67 64 60 54 42 52 51 47 46 48 49 45 47 45 42 47 49 51 55 55 56 56 57 56 56 56 55 57 57 56 54 55 55 54 54 57 56 57 57 58 59 61 64 64 65 65 65 65 65 64 65
54 54 54 54 54 55 54 55 55 55 55 56 55 55 55 55 55 55 55 56 56 55 55 55 55 56 56 52 45 31 24 38 40 58 62 67 67 63 58 57 47 39 47 51 47 45 45 46 45 46 44 43 48 48 50 49 51 55 55 56 54 54 55 54 51 53 54 54 54 54 54 54 56 54 56 57 57 60 63 63 64 65 65 65 65 64 64 65
54 54 54 54 54 54 54 54 55 55 55 55 55 55 55 55 55 56 55 55 56 55 54 55 56 56 55 50 41 26 26 36 52 60 63 64 61 57 57 53 41 38 35 43 49 45 40 44 43 47 47 46 47 47 51 50 49 51 53 53 53 52 50 49 48 49 52 53 52 52 53 53 53 52 50 54 57 61 63 63 64 64 64 64 64 64 64 65
54 54 54 54 54 54 54 55 55 55 55 55 55 55 55 55 55 55 55 56 56 56 55 55 56 55 49 50 34 24 31 41 40 46 58 57 54 53 52 51 37 35 32 31 47 46 42 44 43 47 43 40 48 46 49 50 50 50 47 46 48 49 49 49 48 48 50 52 52 52 52 51 51 52 49 57 58 61 62 63 63 63 64 64 64 63 64 65
53 53 53 54 54 54 54 54 55 54 55 54 54 55 55 55 54 55 56 57 57 55 56 57 57 55 52 47 40 29 38 42 40 42 54 54 53 51 49 52 40 34 29 27 37 46 45 44 44 44 35 40 43 44 45 46 44 43 43 41 42 43 43 44 44 45 50 50 52 51 51 50 49 50 51 57 59 61 62 62 63 63 63 63 63 63 64 65
53 53 53 54 53 53 54 54 54 54 54 54 54 55 54 53 54 55 57 57 56 56 57 58 57 55 47 37 40 40 38 38 39 44 44 45 54 53 54 53 46 37 33 28 29 37 43 43 43 43 40 36 34 35 35 41 42 43 42 41 40 39 39 41 44 45 49 50 51 50 47 48 49 49 56 58 59 61 62 62 62 63 63 63 63 63 64 65
53 53 53 53 53 53 54 54 54 53 54 54 54 53 53 53 54 57 59 56 56 57 58 59 55 53 46 37 38 43 46 45 48 50 48 46 52 53 53 52 48 43 42 36 33 33 39 39 41 42 35 33 32 33 31 31 36 37 38 39 38 39 39 43 44 44 48 51 51 50 46 47 48 48 57 58 59 60 61 62 62 62 63 63 63 63 64 65
53 53 53 53 52 54 54 53 53 53 54 54 53 52 53 52 56 58 57 57 58 59 59 58 54 48 42 41 45 47 59 59 54 48 50 38 42 41 51 51 48 46 43 39 35 35 35 34 40 38 36 37 35 33 30 33 35 36 34 36 39 37 38 41 45 46 44 51 51 49 46 46 47 50 57 58 59 60 60 61 62 62 62 63 63 63 64 64
53 53 53 53 53 53 53 52 52 53 53 53 51 51 53 54 59 59 58 59 60 59 57 53 53 52 48 38 36 48 48 44 36 34 49 39 38 37 46 51 49 47 45 40 39 35 33 34 35 36 35 32 31 30 29 29 30 34 34 34 35 39 38 39 38 47 46 50 50 49 47 48 46 51 57 58 58 59 59 61 61 61 62 62 63 63 64 64
53 52 53 53 54 53 52 52 52 53 52 52 51 51 53 58 57 58 59 60 59 56 54 52 53 53 38 39 43 37 28 27 29 24 22 32 38 38 50 49 47 45 42 40 35 32 32 32 33 32 31 31 30 30 30 29 29 30 34 34 33 38 38 37 37 38 47 49 48 49 48 46 48 54 57 57 58 58 58 60 60 61 62 62 63 63 63 64
52 52 52 54 53 52 52 51 52 52 51 51 51 51 50 58 60 59 58 59 58 56 53 53 53 48 36 35 18 20 23 27 25 23 22 20 28 41 49 47 45 43 40 36 36 30 31 29 28 28 27 30 28 29 30 29 29 29 32 33 33 34 33 33 34 37 47 49 48 48 47 47 47 54 57 57 57 57 57 59 59 60 61 62 62 62 63 64
53 53 53 53 52 52 52 52 51 51 51 51 52 54 55 58 51 52 51 54 27 16 11 24 32 21 15 18 23 27 25 22 23 22 18 27 43 41 44 44 44 39 36 32 32 31 30 28 27 25 23 27 29 29 30 32 32 31 32 32 33 32 33 33 34 37 48 47 47 47 47 47 48 54 57 57 57 57 57 58 59 60 60 61 61 62 63 63
53 53 53 52 51 51 51 51 51 50 50 48 44 40 31 26 21 16 27 24 16 13 12 13 38 32 31 26 23 22 22 22 19 20 22 23 33 40 39 41 41 38 33 26 30 30 27 25 22 20 20 23 27 30 30 30 32 34 33 32 32 32 32 33 34 35 48 47 47 47 47 47 47 53 56 57 57 57 57 57 57 58 59 60 60 61 62 63
53 53 52 51 51 50 51 51 51 50 50 47 41 27 26 27 19 16 22 22 21 21 19 19 17 20 19 20 20 20 19 18 21 20 20 27 26 39 37 37 38 34 33 30 30 33 26 24 23 20 18 19 23 28 29 30 30 31 30 31 32 32 32 33 33 35 44 46 46 47 47 47 46 52 56 57 57 56 56 57 57 57 58 59 60 60 61 62
52 52 51 51 50 50 50 50 50 50 50 44 31 26 27 29 29 26 22 19 19 21 21 20 22 21 21 20 20 21 22 19 18 18 21 23 31 36 35 34 35 34 34 31 31 29 27 23 22 23 20 20 26 29 29 29 29 30 30 30 28 28 31 30 31 34 37 47 45 46 46 47 46 49 55 56 57 57 57 57 57 57 57 58 59 59 60 61
53 53 51 51 50 49 50 50 50 50 43 41 36 26 29 31 32 31 24 21 20 22 22 22 22 21 18 20 25 23 20 22 18 19 19 24 30 35 33 33 32 32 32 31 28 28 26 25 24 25 24 23 27 31 31 30 30 29 30 29 28 29 28 29 31 31 34 45 42 45 45 46 47 49 54 56 57 57 57 57 57 57 57 57 58 58 59 60
53 53 52 50 49 49 50 49 48 42 40 40 40 28 29 30 30 24 21 18 16 21 25 24 25 24 16 15 24 20 21 21 21 17 24 21 21 29 32 33 31 30 30 31 29 28 26 29 29 25 26 25 24 30 31 30 30 31 31 30 30 28 27 29 31 29 31 36 40 40 43 42 45 44 48 54 57 57 57 57 57 58 58 58 58 58 59 59
53 52 52 50 49 49 48 47 37 37 41 41 40 38 34 37 36 25 21 19 17 21 26 27 33 21 17 22 24 16 22 23 21 21 25 21 17 20 25 32 32 30 30 31 31 30 30 31 28 24 24 25 24 26 29 30 29 30 30 31 30 30 28 27 28 26 27 29 30 33 32 33 40 43 44 49 55 55 56 57 57 57 57 58 57 58 58 59
53 52 51 49 50 49 48 30 29 38 38 33 29 33 37 37 35 29 24 17 12 16 20 14 26 17 22 16 17 16 26 22 23 21 31 24 27 20 21 24 31 29 30 30 30 31 30 31 27 24 23 23 24 24 28 29 29 29 30 30 30 29 27 26 27 28 28 28 32 35 29 29 39 41 42 47 53 54 55 56 56 57 57 57 57 58 58 58
52 52 50 49 50 49 35 32 34 38 29 29 30 36 40 40 42 26 20 12 7 17 14 17 18 18 20 17 17 16 12 13 19 20 20 23 23 24 15 14 23 30 30 30 30 27 30 30 29 28 24 23 23 23 27 29 29 29 32 30 29 28 26 25 25 26 29 35 34 31 34 31 31 34 43 46 50 53 54 55 56 56 57 57 57 57 58 58
52 51 49 49 49 49 36 41 41 36 34 35 38 41 43 44 34 24 15 4 7 19 16 17 18 21 18 18 17 17 15 18 18 19 21 21 26 24 18 16 21 26 27 28 26 30 29 29 29 28 28 25 23 23 26 30 29 29 30 30 28 28 27 26 24 26 29 27 25 29 32 29 34 36 43 45 47 50 53 54 54 55 56 57 57 57 58 58
51 51 50 49 49 48 46 43 42 36 37 40 42 43 45 37 26 18 9 -0 17 17 20 16 23 20 17 17 16 19 18 21 19 20 22 22 29 27 14 15 16 15 15 26 27 28 29 29 29 29 28 27 27 27 29 30 29 30 28 30 28 27 27 26 25 25 27 26 24 26 27 26 27 32 39 47 45 46 50 53 54 55 56 56 57 57 57 58
51 50 49 49 46 45 44 45 42 41 42 42 43 45 36 28 22 16 6 -1 15 10 17 17 17 15 17 15 17 19 17 20 22 22 20 23 28 29 27 22 22 18 13 15 19 26 29 37 33 29 28 28 29 29 30 30 30 30 30 28 26 25 25 33 27 27 28 23 24 25 26 25 24 29 30 43 44 45 47 50 53 54 55 56 56 57 57 57
50 49 49 48 43 43 44 34 35 39 42 43 44 34 27 24 26 15 5 10 16 15 17 16 15 17 16 15 16 20 19 20 22 21 18 25 27 27 26 26 27 25 21 19 18 20 23 26 32 29 30 29 29 28 30 31 31 30 28 28 28 28 28 28 30 30 23 22 26 25 25 26 24 27 32 39 45 45 46 47 49 51 54 55 56 56 57 57
49 48 49 46 46 51 35 35 38 42 42 43 37 24 17 10 15 11 8 20 13 13 14 14 16 17 15 16 19 20 19 20 22 20 19 21 26 25 25 23 25 24 18 18 18 24 19 22 30 33 36 28 28 27 28 30 30 30 29 29 26 26 26 24 26 22 22 23 27 24 25 26 25 26 30 31 40 45 46 46 47 50 51 54 55 56 56 57
49 48 48 46 52 47 45 42 44 40 38 37 28 22 16 13 9 20 15 15 16 16 13 19 16 16 16 16 19 21 21 20 22 20 20 19 27 26 26 24 23 25 21 24 20 21 18 22 23 26 32 32 28 25 26 27 29 29 28 29 27 25 23 22 23 25 22 26 29 26 27 23 29 27 28 27 32 42 46 47 47 48 50 52 53 55 56 56
49 48 44 41 43 46 45 46 39 38 36 34 24 21 20 8 14 25 17 16 14 18 18 17 16 16 16 14 18 22 19 21 21 21 20 21 26 27 26 26 24 21 24 25 22 23 19 19 21 23 24 32 29 27 27 27 28 29 29 28 28 27 25 22 23 20 19 24 25 25 23 25 22 28 27 28 28 34 44 46 47 48 49 50 52 54 55 56
49 46 42 41 48 49 40 38 38 40 30 23 23 23 16 17 24 17 18 17 16 17 15 17 16 15 15 15 16 23 23 21 22 20 20 27 27 27 25 26 26 23 22 23 28 27 24 24 25 27 27 31 30 30 30 29 29 29 29 30 29 27 34 25 26 23 22 22 22 23 24 27 25 34 38 33 27 29 39 45 47 47 48 49 50 51 53 55
45 41 42 43 44 34 36 38 38 37 25 22 26 22 18 20 17 18 15 17 17 15 15 15 16 14 16 15 20 21 24 22 22 20 20 25 28 28 28 27 26 26 24 21 22 25 26 26 26 25 26 28 30 32 30 30 26 29 29 28 28 30 27 28 35 33 27 24 19 25 22 22 20 22 19 24 30 29 35 41 45 47 48 49 49 50 51 53
43 42 38 39 36 34 36 38 38 36 30 24 22 18 23 26 21 19 39 16 15 16 15 12 14 14 15 15 16 18 22 24 22 20 19 21 25 28 28 28 29 27 27 26 23 27 24 21 24 26 26 28 32 31 31 31 31 30 28 29 30 30 30 29 24 24 22 20 22 22 20 21 21 21 27 24 28 29 33 38 43 46 47 48 49 50 51 52
44 42 44 42 33 35 37 38 39 33 30 29 24 34 30 21 21 19 19 17 17 17 15 15 15 18 18 16 16 17 20 21 22 20 19 21 23 30 28 28 29 29 28 28 25 27 24 25 28 31 30 29 32 29 30 31 31 30 29 30 28 27 26 29 29 23 21 20 19 19 26 24 21 23 26 20 23 26 32 37 40 44 46 47 48 49 50 51
43 41 35 33 34 37 38 39 36 30 28 25 26 29 30 24 21 20 21 21 18 17 14 16 15 18 19 17 17 19 21 22 24 22 18 20 19 28 28 29 29 30 29 28 24 25 27 30 31 33 30 30 29 28 26 29 29 30 30 29 31 29 28 27 27 28 25 22 20 19 19 17 23 21 19 18 21 24 27 33 38 43 45 46 47 48 49 51
42 30 26 33 36 38 39 41 29 27 26 22 22 27 25 19 21 24 24 24 18 17 18 17 18 18 20 20 19 19 21 25 24 25 19 22 23 30 30 30 30 30 30 29 26 25 25 33 26 28 30 29 27 26 25 29 28 27 27 29 30 30 29 30 26 23 26 24 19 18 16 22 24 25 19 19 20 22 24 28 34 39 44 46 47 47 49 50
43 34 32 34 37 39 36 33 32 29 27 28 25 27 27 27 24 24 25 25 20 21 16 16 18 18 20 20 19 21 22 23 28 27 26 24 27 25 31 31 31 30 30 28 26 26 28 30 28 28 28 28 28 30 31 30 30 28 26 26 29 28 27 27 27 21 23 24 20 19 19 24 21 28 19 19 20 19 21 25 28 34 39 45 47 47 48 49
35 28 29 36 39 38 32 31 33 34 28 31 30 32 30 36 24 24 26 26 24 23 21 19 22 20 22 21 21 22 22 23 29 30 28 27 29 27 29 32 31 31 29 28 27 27 31 31 32 28 28 27 27 28 28 28 28 30 30 24 25 24 25 28 27 26 23 23 29 25 21 23 26 27 24 19 18 17 17 20 25 28 35 41 45 46 48 49
38 34 37 41 40 36 32 31 36 37 32 32 35 33 31 26 25 27 26 26 26 29 24 21 24 22 23 22 23 22 23 23 30 28 31 30 29 29 32 31 31 29 29 28 29 29 39 31 27 28 26 26 26 27 27 29 29 27 29 28 22 22 20 23 26 25 22 24 24 24 24 24 28 30 25 20 21 17 18 17 21 24 29 35 41 45 47 49
40 40 39 41 39 36 32 30 30 32 35 35 35 33 31 27 28 28 28 27 28 27 26 24 28 25 23 24 23 23 25 22 31 30 29 32 33 33 32 31 31 29 29 28 30 34 32 31 27 24 24 24 23 26 30 32 29 29 28 28 29 28 25 23 27 29 22 20 21 23 22 22 32 44 34 34 29 25 24 17 19 20 25 30 36 41 45 49
42 42 40 41 40 35 33 34 32 31 34 33 34 31 30 29 30 30 29 29 30 29 27 24 27 26 24 25 25 25 24 23 25 32 30 33 33 35 35 33 32 30 30 34 40 39 36 32 28 22 21 20 20 20 24 26 26 27 28 27 27 27 26 25 20 24 21 28 26 22 22 24 32 34 31 33 33 32 28 28 21 17 21 26 34 39 44 47
36 29 34 35 36 36 37 36 35 34 33 33 32 33 31 30 31 32 31 28 30 30 27 30 26 26 27 26 26 23 23 28 24 29 32 32 33 35 35 34 34 31 36 40 40 35 32 34 30 27 25 23 25 27 27 29 28 26 26 27 27 28 27 29 29 24 19 27 23 25 25 23 27 23 25 23 24 21 20 25 26 24 20 22 32 40 42 46
37 31 33 32 35 35 34 34 35 35 33 35 29 32 32 31 31 32 33 29 32 31 29 29 28 27 28 28 27 25 24 24 30 27 25 26 31 34 38 35 36 34 37 37 36 32 34 29 29 31 30 27 27 27 26 28 26 27 27 27 27 27 27 27 28 23 31 24 20 28 31 25 21 21 23 25 22 24 26 27 24 25 24 21 21 35 51 45
30 33 36 38 33 32 34 34 35 35 36 35 32 35 33 32 32 31 32 32 32 33 29 31 31 31 30 30 28 26 26 26 27 25 30 31 31 33 32 35 32 35 37 33 33 31 31 27 28 28 27 27 27 27 28 28 27 26 27 27 27 27 27 27 29 29 31 23 21 27 33 27 21 20 20 23 25 23 19 21 23 23 23 25 29 32 44 46
37 38 37 38 37 37 36 36 37 36 33 34 35 34 33 32 32 32 32 31 32 32 33 28 30 31 31 31 30 26 25 23 23 29 27 28 30 30 32 35 34 38 35 34 31 32 31 29 29 28 27 28 28 27 27 27 27 27 28 28 28 27 27 28 28 28 29 29 27 30 32 24 20 19 25 27 31 24 24 32 40 36 24 29 30 35 43 47
39 37 38 41 40 39 38 36 35 34 32 36 32 33 34 33 33 34 34 33 31 32 34 32 31 32 32 32 30 27 27 26 26 25 30 29 27 29 31 31 35 39 39 32 31 31 31 29 33 28 29 27 27 28 28 28 27 25 25 25 30 35 38 39 38 33 33 29 25 22 26 27 29 40 41 43 48 45 45 47 46 43 35 39 40 41 45 48
46 47 46 40 37 39 39 38 35 34 31 31 30 33 34 34 33 36 34 36 34 31 34 32 34 34 33 32 31 30 30 30 30 29 29 29 26 33 29 34 36 35 35 34 33 32 32 31 30 31 27 25 27 28 27 27 27 26 28 33 37 39 41 38 39 41 34 30 28 23 24 23 32 46 44 56 59 59 59 59 59 56 40 42 44 44 47 49
48 50 48 44 36 40 37 36 35 33 30 33 35 34 34 34 35 37 33 38 38 36 35 35 34 33 33 31 30 30 30 30 30 30 30 29 29 28 30 31 36 35 36 35 36 32 32 30 28 28 27 25 26 28 27 27 34 33 35 37 38 39 44 47 47 47 47 49 41 27 22 41 49 50 55 58 59 60 61 61 61 62 59 45 45 46 47 49